LUCH 5V                 
1 39727U 14023A   19258.92049676 -.00000277  00000-0  00000-0 0  9993
2 39727   1.0391 306.8601 0002604 221.8987 251.9053  1.00269221537796
KAZSAT-3                
1 39728U 14023B   19258.76971266  .00000051  00000-0  00000+0 0  9993
2 39728   0.0097 160.0344 0000617  24.4670 145.5321  1.00272666 19700
BREEZE-M R/B            
1 39729U 14023C   19258.99475707 -.00000135  00000-0  00000+0 0  9992
2 39729   4.3116  61.8845 0600855 155.4101 207.9948  0.92544108 18214
BREEZE-M DEB [TANK]     
1 39730U 14023D   19258.83235498 -.00000090  00000-0  75198-4 0  9993
2 39730  47.6923  73.3825 7090801 189.2463 142.7072  2.45074234 47073